Погода в Дюнах

Болгария     42°22′18″N   27°42′18″E
темп.,
°C
ветер,
м/с
пор.,
м/с
влажн.,
%
обл.,
%
осадки,
мм/ч
давл.,
гПа
погр.,
м
16 мая, вс
вс1600:00+15ююз1185100 0.1 101017
03:00+14в1185100 0.2 100911
06:00+13зюз118798 0.0 100814
09:00+16зсз228090 0.0 1009182
12:00+19всв337010 0.3 1009784
15:00+19в216996 2.0 1007699
18:00+18в337511 0.9 1007325
21:00+13юв2289100 1.1 100812
17 мая, пн
пн1700:00+12зюз229164 0.0 100824
03:00+12з33915 0.0 100856
06:00+12зюз33920 0.0 100862
09:00+18з35723 0.0 1009446
12:00+22сз24553 0.0 10091348
15:00+23ю155011 0.0 10071657
18:00+23ююв246329 0.0 10061374
21:00+17ююз34735 0.0 100659
18 мая, вт
вт1800:00+16з488886 0.6 1007208
03:00+14сз119448 2.1 100822
06:00+13з2392100 0.1 100851
09:00+18сз358275 0.1 1010519
12:00+15сз4786100 0.4 1012329
15:00+15з268592 1.0 1013360
18:00+20з36635 0.0 10131159
21:00+14з11795 0.0 101511
19 мая, ср
ср1900:00+12юз22780 0.0 101523
03:00+12юз22725 0.0 101523
06:00+11юз22730 0.0 101528
09:00+17ююз12570 0.0 1014297
12:00+19всв44610 0.0 1014497
15:00+20в56594 0.0 1013440
18:00+18вюв48678 0.0 1012295
21:00+14юв37780 0.0 1011140
20 мая, чт
чт2000:00+12ююв378436 0.0 1010136
03:00+12юз1181100 0.0 100820
06:00+12сз23904 0.0 100893
09:00+15сз897654 0.0 1010783
12:00+13сз61078100 0.2 1010663
15:00+12зсз51086100 0.7 1011633
18:00+12юз34915 0.9 1011182
21:00+12зсз238096 0.9 101180